Simultaneous Nadir Overpasses (SNOs) Predictions

Prediction of SNOs between LANDSAT-8 and METOP-B Satellite Orbit:

Table of predicted SNOs for the next 14.0 days since TLE Epoch: 6/8/2019
Index Date (LANDSAT-8) Time (LANDSAT-8) Lat,Lon (LANDSAT-8) SZA (LANDSAT-8 ) Date (METOP-B) Time (METOP-B) Lat,Lon (METOP-B) SZA (METOP-B ) Distance(km) Time Diff (sec)
1 06/09/2019 02:22:10 81.14,-175.26 60.47 06/09/2019 02:21:32 81.14,-175.26 60.46 0.19 38
2 06/09/2019 03:11:36 -81.16, -7.28 119.48 06/09/2019 03:12:12 -81.16, -7.44 119.49 2.79 36
3 06/11/2019 21:56:26 81.15,-108.68 60.27 06/11/2019 21:55:54 81.15,-108.57 60.27 1.94 32
4 06/11/2019 22:45:52 -81.17, 59.32 119.69 06/11/2019 22:46:34 -81.17, 59.27 119.68 1.07 42
5 06/14/2019 17:30:41 81.16, -42.13 60.11 06/14/2019 17:30:16 81.15, -42.27 60.08 2.67 25
6 06/14/2019 18:20:08 -81.16, 125.53 119.89 06/14/2019 18:20:56 -81.16, 125.58 119.86 1.13 48
7 06/17/2019 13:04:58 81.14, 24.04 59.95 06/17/2019 13:04:39 81.14, 24.02 59.94 0.59 19
8 06/17/2019 13:54:24 -81.17,-167.92 120.00 06/17/2019 13:55:18 -81.17,-167.74 119.95 3.20 54
9 06/20/2019 08:39:14 81.14, 90.55 59.89 06/20/2019 08:39:01 81.15, 90.68 59.90 2.28 13




NCC Satellite Simultaneous Nadir Overpasses (SNOs) Prediction Service
